| time (UTC) | temp F | wind direction | speed MPH | gust MPH | rain 1hr in | rain 24hr in | rain mn in | humidity % | barometer mb |
| 20260503002016 | 43 | 90 | 2.0 | 6.0 | 0.00 | 0.00 | 0.00 | 43 | 1008.6 |
| 20260503001016 | 43 | 135 | 2.0 | 4.0 | 0.00 | 0.00 | 0.00 | 46 | 1008.8 |
| 20260503000016 | 43 | 135 | 2.0 | 7.0 | 0.00 | 0.00 | 0.00 | 47 | 1008.8 |
| 20260502235015 | 43 | 135 | 2.0 | 4.0 | 0.00 | 0.00 | 0.00 | 46 | 1008.9 |
| 20260502234036 | 43 | 68 | 3.0 | 6.0 | 0.00 | 0.00 | 0.00 | 49 | 1008.9 |
| 20260502233015 | 43 | 113 | 2.0 | 4.0 | 0.00 | 0.00 | 0.00 | 50 | 1009.1 |
| 20260502232015 | 42 | 135 | 1.0 | 4.0 | 0.00 | 0.00 | 0.00 | 50 | 1009.2 |
| 20260502231015 | 42 | 113 | 2.0 | 6.0 | 0.00 | 0.00 | 0.00 | 53 | 1009.4 |
| 20260502230016 | 42 | 0.0 | 2.0 | 0.00 | 0.00 | 0.00 | 57 | 1009.3 | |
| 20260502225016 | 43 | 113 | 1.0 | 4.0 | 0.00 | 0.00 | 0.00 | 52 | 1009.4 |
| 20260502224015 | 43 | 113 | 2.0 | 4.0 | 0.00 | 0.00 | 0.00 | 53 | 1009.6 |
| 20260502223036 | 44 | 90 | 2.0 | 3.0 | 0.00 | 0.00 | 0.00 | 50 | 1009.7 |
| 20260502222015 | 44 | 90 | 1.0 | 3.0 | 0.00 | 0.00 | 0.00 | 49 | 1009.8 |
| 20260502221015 | 43 | 113 | 2.0 | 4.0 | 0.00 | 0.00 | 0.00 | 53 | 1009.9 |
| 20260502220015 | 43 | 113 | 3.0 | 7.0 | 0.00 | 0.00 | 0.00 | 53 | 1010.0 |
| 20260502215015 | 43 | 113 | 3.0 | 4.0 | 0.00 | 0.00 | 0.00 | 53 | 1010.1 |
| 20260502214035 | 43 | 135 | 3.0 | 5.0 | 0.00 | 0.00 | 0.00 | 52 | 1010.1 |
| 20260502213058 | 42 | 113 | 2.0 | 4.0 | 0.00 | 0.00 | 0.00 | 54 | 1010.4 |
| 20260502212017 | 42 | 113 | 3.0 | 5.0 | 0.00 | 0.00 | 0.00 | 56 | 1010.6 |
| 20260502211017 | 41 | 135 | 3.0 | 5.0 | 0.00 | 0.00 | 0.00 | 58 | 1010.5 |
| 20260502210017 | 40 | 135 | 4.0 | 8.0 | 0.00 | 0.00 | 0.00 | 60 | 1010.7 |
| 20260502205037 | 40 | 113 | 4.0 | 8.0 | 0.00 | 0.00 | 0.00 | 61 | 1010.8 |
| 20260502204017 | 40 | 113 | 5.0 | 8.0 | 0.00 | 0.00 | 0.00 | 61 | 1011.0 |
| 20260502203017 | 40 | 135 | 4.0 | 9.0 | 0.00 | 0.00 | 0.00 | 62 | 1011.1 |
| 20260502202017 | 39 | 113 | 5.0 | 8.0 | 0.00 | 0.00 | 0.00 | 64 | 1011.4 |
| 20260502201017 | 39 | 113 | 6.0 | 9.0 | 0.00 | 0.00 | 0.00 | 64 | 1011.5 |
| 20260502200017 | 40 | 113 | 4.0 | 7.0 | 0.00 | 0.00 | 0.00 | 64 | 1011.7 |
| 20260502195037 | 39 | 113 | 4.0 | 7.0 | 0.00 | 0.00 | 0.00 | 65 | 1011.8 |
| 20260502194018 | 39 | 135 | 3.0 | 5.0 | 0.00 | 0.00 | 0.00 | 64 | 1012.0 |
| 20260502193017 | 39 | 135 | 3.0 | 5.0 | 0.00 | 0.00 | 0.00 | 64 | 1012.2 |
| 20260502192017 | 39 | 135 | 3.0 | 4.0 | 0.00 | 0.00 | 0.00 | 64 | 1012.2 |
| 20260502191017 | 39 | 158 | 3.0 | 5.0 | 0.00 | 0.00 | 0.00 | 65 | 1012.3 |
| 20260502190017 | 39 | 158 | 3.0 | 5.0 | 0.00 | 0.00 | 0.00 | 64 | 1012.5 |
| 20260502185017 | 38 | 180 | 3.0 | 5.0 | 0.00 | 0.00 | 0.00 | 64 | 1012.6 |
| 20260502184017 | 39 | 180 | 3.0 | 3.0 | 0.00 | 0.00 | 0.00 | 63 | 1012.8 |
| 20260502183017 | 39 | 203 | 3.0 | 4.0 | 0.00 | 0.00 | 0.00 | 65 | 1013.0 |
| 20260502182017 | 38 | 203 | 3.0 | 4.0 | 0.00 | 0.00 | 0.00 | 65 | 1013.1 |
| 20260502181037 | 38 | 203 | 3.0 | 4.0 | 0.00 | 0.00 | 0.00 | 64 | 1013.2 |
| 20260502164037 | 37 | 203 | 3.0 | 4.0 | 0.00 | 0.00 | 0.00 | 63 | 1014.7 |
| 20260502163017 | 37 | 225 | 4.0 | 5.0 | 0.00 | 0.00 | 0.00 | 63 | 1014.8 |
| 20260502162017 | 36 | 203 | 4.0 | 5.0 | 0.00 | 0.00 | 0.00 | 63 | 1014.8 |
| 20260502161057 | 36 | 225 | 3.0 | 4.0 | 0.00 | 0.00 | 0.00 | 61 | 1015.0 |
| 20260502152017 | 36 | 203 | 4.0 | 5.0 | 0.00 | 0.00 | 0.00 | 62 | 1015.5 |
| 20260502151017 | 36 | 225 | 4.0 | 4.0 | 0.00 | 0.00 | 0.00 | 62 | 1015.6 |
| 20260502123016 | 33 | 0.0 | 0.0 | 0.00 | 0.00 | 0.00 | 63 | 1016.6 | |
| 20260502122016 | 33 | 0.0 | 2.0 | 0.00 | 0.00 | 0.00 | 61 | 1016.5 | |
| 20260502121036 | 32 | 0.0 | 0.0 | 0.00 | 0.00 | 0.00 | 66 | 1016.4 | |
| 20260502115016 | 29 | 0 | 2.0 | 2.0 | 0.00 | 0.00 | 0.00 | 67 | 1016.5 |
| 20260502114016 | 28 | 0 | 2.0 | 2.0 | 0.00 | 0.00 | 0.00 | 67 | 1016.5 |
| 20260502113036 | 26 | 0 | 2.0 | 3.0 | 0.00 | 0.00 | 0.00 | 68 | 1016.4 |
| 20260502112016 | 26 | 0 | 2.0 | 3.0 | 0.00 | 0.00 | 0.00 | 68 | 1016.4 |
| 20260502111016 | 25 | 0 | 2.0 | 3.0 | 0.00 | 0.00 | 0.00 | 69 | 1016.4 |
| 20260502110016 | 25 | 0 | 3.0 | 4.0 | 0.00 | 0.00 | 0.00 | 69 | 1016.4 |
| 20260502105016 | 25 | 0 | 3.0 | 4.0 | 0.00 | 0.00 | 0.00 | 68 | 1016.5 |
| 20260502104036 | 25 | 0 | 3.0 | 4.0 | 0.00 | 0.00 | 0.00 | 68 | 1016.5 |
| 20260502103016 | 25 | 0 | 3.0 | 4.0 | 0.00 | 0.00 | 0.00 | 67 | 1016.5 |
| 20260502102036 | 26 | 0 | 3.0 | 4.0 | 0.00 | 0.00 | 0.00 | 66 | 1016.5 |
| 20260502101016 | 26 | 0 | 3.0 | 4.0 | 0.00 | 0.00 | 0.00 | 66 | 1016.6 |
| 20260502091036 | 26 | 0 | 3.0 | 4.0 | 0.00 | 0.00 | 0.00 | 67 | 1016.7 |
| 20260502071015 | 27 | 338 | 3.0 | 4.0 | 0.00 | 0.00 | 0.00 | 65 | 1017.1 |
| 20260502070015 | 28 | 338 | 2.0 | 3.0 | 0.00 | 0.00 | 0.00 | 64 | 1017.2 |
| 20260502065016 | 28 | 338 | 1.0 | 2.0 | 0.00 | 0.00 | 0.00 | 65 | 1017.2 |
| 20260502064015 | 28 | 338 | 2.0 | 3.0 | 0.00 | 0.00 | 0.00 | 66 | 1017.3 |
| 20260502063016 | 28 | 338 | 3.0 | 3.0 | 0.00 | 0.00 | 0.00 | 65 | 1017.3 |
| 20260502062015 | 29 | 338 | 2.0 | 3.0 | 0.00 | 0.00 | 0.00 | 64 | 1017.5 |
| 20260502061015 | 29 | 338 | 2.0 | 3.0 | 0.00 | 0.00 | 0.00 | 64 | 1017.4 |
| 20260502060016 | 28 | 338 | 3.0 | 4.0 | 0.00 | 0.00 | 0.00 | 65 | 1017.4 |
| 20260502055017 | 29 | 338 | 2.0 | 3.0 | 0.00 | 0.00 | 0.00 | 65 | 1017.3 |
| 20260502054017 | 28 | 338 | 3.0 | 4.0 | 0.00 | 0.00 | 0.00 | 65 | 1017.2 |
| 20260502053017 | 29 | 338 | 3.0 | 4.0 | 0.00 | 0.00 | 0.00 | 65 | 1017.3 |
| 20260502052017 | 29 | 338 | 3.0 | 4.0 | 0.00 | 0.00 | 0.00 | 65 | 1017.3 |
| 20260502051017 | 29 | 338 | 3.0 | 3.0 | 0.00 | 0.00 | 0.00 | 65 | 1017.4 |
| 20260502050017 | 28 | 338 | 2.0 | 4.0 | 0.00 | 0.00 | 0.00 | 66 | 1017.4 |
| 20260502045016 | 28 | 315 | 3.0 | 4.0 | 0.00 | 0.00 | 0.00 | 64 | 1017.5 |
| 20260502044016 | 29 | 270 | 3.0 | 6.0 | 0.00 | 0.00 | 0.00 | 64 | 1017.5 |
| 20260502043015 | 29 | 225 | 3.0 | 3.0 | 0.00 | 0.00 | 0.00 | 64 | 1017.5 |
| 20260502042016 | 29 | 225 | 3.0 | 4.0 | 0.00 | 0.00 | 0.00 | 62 | 1017.5 |
| 20260502041015 | 29 | 225 | 2.0 | 3.0 | 0.00 | 0.00 | 0.00 | 63 | 1017.5 |
| 20260502040016 | 29 | 225 | 2.0 | 3.0 | 0.00 | 0.00 | 0.00 | 63 | 1017.5 |
| 20260502035017 | 30 | 225 | 2.0 | 3.0 | 0.00 | 0.00 | 0.00 | 62 | 1017.4 |
| 20260502034017 | 30 | 225 | 1.0 | 3.0 | 0.00 | 0.00 | 0.00 | 61 | 1017.4 |
| 20260502033017 | 31 | 225 | 2.0 | 4.0 | 0.00 | 0.00 | 0.00 | 60 | 1017.5 |
| 20260502032017 | 31 | 0.0 | 1.0 | 0.00 | 0.00 | 0.00 | 59 | 1017.8 | |
| 20260502031018 | 31 | 0.0 | 2.0 | 0.00 | 0.00 | 0.00 | 60 | 1017.7 | |
| 20260502030037 | 30 | 225 | 2.0 | 3.0 | 0.00 | 0.00 | 0.00 | 61 | 1017.6 |
| 20260502025017 | 30 | 225 | 3.0 | 3.0 | 0.00 | 0.00 | 0.00 | 60 | 1017.6 |
| 20260502024017 | 31 | 225 | 2.0 | 3.0 | 0.00 | 0.00 | 0.00 | 60 | 1017.6 |
| 20260502023017 | 31 | 225 | 2.0 | 3.0 | 0.00 | 0.00 | 0.00 | 60 | 1017.6 |
| 20260502022017 | 31 | 225 | 2.0 | 3.0 | 0.00 | 0.00 | 0.00 | 59 | 1017.6 |
| 20260502021018 | 32 | 225 | 2.0 | 3.0 | 0.00 | 0.00 | 0.00 | 58 | 1017.6 |
| 20260502020017 | 33 | 225 | 2.0 | 3.0 | 0.00 | 0.00 | 0.00 | 56 | 1017.7 |
| 20260502015017 | 34 | 225 | 2.0 | 3.0 | 0.00 | 0.00 | 0.00 | 54 | 1017.5 |
| 20260502014017 | 34 | 225 | 1.0 | 2.0 | 0.00 | 0.00 | 0.00 | 53 | 1017.5 |
| 20260502013017 | 35 | 225 | 1.0 | 2.0 | 0.00 | 0.00 | 0.00 | 53 | 1017.5 |
| 20260502012017 | 37 | 225 | 2.0 | 3.0 | 0.00 | 0.00 | 0.00 | 50 | 1017.5 |
| 20260502011017 | 37 | 225 | 1.0 | 2.0 | 0.00 | 0.00 | 0.00 | 48 | 1017.5 |
| 20260502010017 | 38 | 225 | 1.0 | 2.0 | 0.00 | 0.00 | 0.00 | 49 | 1017.5 |
| 20260502005037 | 37 | 0.0 | 0.0 | 0.00 | 0.00 | 0.00 | 52 | 1017.4 | |
| 20260502004017 | 37 | 0.0 | 2.0 | 0.00 | 0.00 | 0.00 | 55 | 1017.5 | |
| 20260502003017 | 37 | 0.0 | 1.0 | 0.00 | 0.00 | 0.00 | 56 | 1017.5 |